H1 CPF 2 NER 2021 1 13 9 013 01 glonass138 H2 1805301 9138 43508 2021 1 13 0 0 0 2021 1 16 23 45 0 900 1 1 0 0 0 1 H9 10 0 59227 0.00000 0 -8722450.798 7484234.151 22775163.520 10 0 59227 900.00000 0 -11228930.294 6319785.131 22015269.587 10 0 59227 1800.00000 0 -13703220.921 5386999.079 20827871.198 10 0 59227 2700.00000 0 -16076981.084 4691248.538 19235914.743 10 0 59227 3600.00000 0 -18283476.899 4225446.148 17270217.198 10 0 59227 4500.00000 0 -20260202.950 3970532.789 14968876.980 10 0 59227 5400.00000 0 -21951343.871 3896480.992 12376541.573 10 0 59227 6300.00000 0 -23309973.836 3963771.481 9543545.229 10 0 59227 7200.00000 0 -24299901.543 4125280.389 6524933.007 10 0 59227 8100.00000 0 -24897082.912 4328497.057 3379389.836 10 0 59227 9000.00000 0 -25090541.655 4517978.012 168095.498 10 0 59227 9900.00000 0 -24882758.484 4637932.410 -3046471.600 10 0 59227 10800.00000 0 -24289512.303 4634828.324 -6201757.871 10 0 59227 11700.00000 0 -23339179.938 4459908.157 -9236360.436 10 0 59227 12600.00000 0 -22071524.098 4071505.288 -12091230.438 10 0 59227 13500.00000 0 -20536021.031 3437062.453 -14710829.379 10 0 59227 14400.00000 0 -18789798.871 2534765.173 -17044215.181 10 0 59227 15300.00000 0 -16895274.137 1354720.045 -19046036.174 10 0 59227 16200.00000 0 -14917586.381 -100372.793 -20677413.466 10 0 59227 17100.00000 0 -12921939.164 -1815082.251 -21906694.655 10 0 59227 18000.00000 0 -10970959.174 -3761650.281 -22710064.503 10 0 59227 18900.00000 0 -9122184.024 -5900920.958 -23072001.397 10 0 59227 19800.00000 0 -7425783.361 -8183756.205 -22985571.411 10 0 59227 20700.00000 0 -5922607.867 -10552879.366 -22452555.017 10 0 59227 21600.00000 0 -4642646.480 -12945070.124 -21483404.717 10 0 59227 22500.00000 0 -3603954.923 -15293619.658 -20097034.981 10 0 59227 23400.00000 0 -2812098.776 -17530944.163 -18320448.995 10 0 59227 24300.00000 0 -2260132.681 -19591248.341 -16188209.729 10 0 59227 25200.00000 0 -1929114.872 -21413128.478 -13741765.650 10 0 59227 26100.00000 0 -1789133.917 -22942007.082 -11028644.161 10 0 59227 27000.00000 0 -1800803.123 -24132298.194 -8101528.365 10 0 59227 27900.00000 0 -1917158.576 -24949213.559 -5017234.851 10 0 59227 28800.00000 0 -2085879.956 -25370134.803 -1835612.359 10 0 59227 29700.00000 0 -2251739.786 -25385494.817 1381617.445 10 0 59227 30600.00000 0 -2359177.252 -24999132.034 4572054.668 10 0 59227 31500.00000 0 -2354887.630 -24228103.208 7673828.161 10 0 59227 32400.00000 0 -2190317.695 -23101962.944 10626791.480 10 0 59227 33300.00000 0 -1823961.568 -21661540.356 13373684.828 10 0 59227 34200.00000 0 -1223359.884 -19957264.158 15861240.626 10 0 59227 35100.00000 0 -366717.576 -18047106.168 18041211.701 10 0 59227 36000.00000 0 755928.424 -15994228.876 19871302.625 10 0 59227 36900.00000 0 2142041.508 -13864434.916 21315986.639 10 0 59227 37800.00000 0 3776446.902 -11723524.253 22347192.860 10 0 59227 38700.00000 0 5631729.584 -9634668.549 22944850.925 10 0 59227 39600.00000 0 7669153.563 -7655911.434 23097282.745 10 0 59227 40500.00000 0 9840065.865 -5837898.024 22801433.873 10 0 59227 41400.00000 0 12087728.481 -4221927.554 22062939.789 10 0 59227 42300.00000 0 14349503.496 -2838409.765 20896025.311 10 0 59227 43200.00000 0 16559301.868 -1705788.897 19323238.372 10 0 59227 44100.00000 0 18650194.923 -829979.845 17375022.366 10 0 59227 45000.00000 0 20557080.399 -204339.842 15089134.376 10 0 59227 45900.00000 0 22219292.132 189823.437 12509919.573 10 0 59227 46800.00000 0 23583044.258 382228.920 9687454.985 10 0 59227 47700.00000 0 24603607.235 412127.719 6676578.744 10 0 59227 48600.00000 0 25247123.824 326400.699 3535823.382 10 0 59227 49500.00000 0 25491988.071 177329.107 326273.980 10 0 59227 50400.00000 0 25329728.491 20133.353 -2889626.077 10 0 59227 51300.00000 0 24765357.681 -89614.748 -6049297.754 10 0 59227 52200.00000 0 23817173.145 -98595.427 -9091252.718 10 0 59227 53100.00000 0 22516017.517 41751.532 -11956298.334 10 0 59227 54000.00000 0 20904029.403 372922.770 -14588696.924 10 0 59227 54900.00000 0 19032937.658 927349.664 -16937255.849 10 0 59227 55800.00000 0 16961971.301 1726784.752 -18956326.566 10 0 59227 56700.00000 0 14755473.354 2781145.390 -20606692.989 10 0 59227 57600.00000 0 12480319.085 4087864.270 -21856331.932 10 0 59227 58500.00000 0 10203247.130 5631774.707 -22681031.162 10 0 59227 59400.00000 0 7988215.137 7385536.062 -23064853.673 10 0 59227 60300.00000 0 5893890.052 9310581.858 -23000439.861 10 0 59227 61200.00000 0 3971377.223 11358551.212 -22489142.518 10 0 59227 62100.00000 0 2262282.005 13473144.032 -21540992.716 10 0 59227 63000.00000 0 797183.361 15592322.858 -20174497.869 10 0 59227 63900.00000 0 -405418.370 17650769.684 -18416276.295 10 0 59227 64800.00000 0 -1339637.375 19582495.667 -16300535.668 10 0 59227 65700.00000 0 -2012201.371 21323495.191 -13868405.529 10 0 59227 66600.00000 0 -2441915.474 22814333.878 -11167136.842 10 0 59227 67500.00000 0 -2658615.116 24002562.893 -8249184.022 10 0 59227 68400.00000 0 -2701653.438 24844859.055 -5171187.098 10 0 59227 69300.00000 0 -2617988.008 25308801.625 -1992873.721 10 0 59227 70200.00000 0 -2459948.438 25374211.807 1224097.775 10 0 59227 71100.00000 0 -2282779.749 25033999.185 4417331.908 10 0 59227 72000.00000 0 -2142065.658 24294479.902 7524902.993 10 0 59227 72900.00000 0 -2091140.880 23175153.430 10486552.198 10 0 59227 73800.00000 0 -2178601.925 21707947.303 13244851.702 10 0 59227 74700.00000 0 -2446021.594 19935961.360 15746313.520 10 0 59227 75600.00000 0 -2925963.811 17911763.743 17942421.945 10 0 59227 76500.00000 0 -3640382.798 15695309.387 19790570.033 10 0 59227 77400.00000 0 -4599474.506 13351567.357 21254882.472 10 0 59227 78300.00000 0 -5801029.400 10947955.183 22306909.425 10 0 59227 79200.00000 0 -7230314.851 8551686.211 22926178.350 10 0 59227 80100.00000 0 -8860493.423 6227139.541 23100593.394 10 0 59227 81000.00000 0 -10653561.074 4033361.064 22826674.685 10 0 59227 81900.00000 0 -12561767.777 2021798.644 22109632.719 10 0 59227 82800.00000 0 -14529462.793 234365.015 20963275.907 10 0 59227 83700.00000 0 -16495289.119 -1298091.607 19409752.384 10 0 59227 84600.00000 0 -18394636.757 -2556846.010 17479130.128 10 0 59227 85500.00000 0 -20162253.179 -3535839.689 15208822.579 10 0 59228 0.00000 0 -21734902.426 -4241687.460 12642869.919 10 0 59228 900.00000 0 -23053961.462 -4693146.931 9831088.750 10 0 59228 1800.00000 0 -24067845.250 -4920073.790 6828106.996 10 0 59228 2700.00000 0 -24734156.891 -4961906.834 3692301.286 10 0 59228 3600.00000 0 -25021473.198 -4865747.976 484658.418 10 0 59228 4500.00000 0 -24910688.375 -4684118.671 -2732416.810 10 0 59228 5400.00000 0 -24395858.891 -4472488.932 -5896323.408 10 0 59228 6300.00000 0 -23484512.977 -4286684.703 -8945490.949 10 0 59228 7200.00000 0 -22197411.140 -4180284.669 -11820586.206 10 0 59228 8100.00000 0 -20567767.471 -4202118.083 -14465675.244 10 0 59228 9000.00000 0 -18639964.405 -4393970.819 -16829317.463 10 0 59228 9900.00000 0 -16467815.159 -4788597.768 -18865569.627 10 0 59228 10800.00000 0 -14112447.054 -5408126.562 -20534880.119 10 0 59228 11700.00000 0 -11639894.728 -6262920.704 -21804856.046 10 0 59228 12600.00000 0 -9118504.249 -7350950.562 -22650888.616 10 0 59228 13500.00000 0 -6616256.621 -8657699.057 -23056625.202 10 0 59228 14400.00000 0 -4198122.141 -10156606.321 -23014279.686 10 0 59228 15300.00000 0 -1923555.421 -11810034.786 -22524775.761 10 0 59228 16200.00000 0 155765.472 -13570714.485 -21597721.173 10 0 59228 17100.00000 0 1997862.806 -15383608.248 -20251213.976 10 0 59228 18000.00000 0 3571967.160 -17188118.905 -18511485.003 10 0 59228 18900.00000 0 4859548.451 -18920546.483 -16412383.787 10 0 59228 19800.00000 0 5854828.808 -20516692.903 -13994717.936 10 0 59228 20700.00000 0 6564757.637 -21914505.488 -11305458.877 10 0 59228 21600.00000 0 7008451.784 -23056648.996 -8396829.226 10 0 59228 22500.00000 0 7216125.892 -23892898.770 -5325289.369 10 0 59228 23400.00000 0 7227559.326 -24382255.000 -2150442.884 10 0 59228 24300.00000 0 7090165.386 -24494689.743 1066118.076 10 0 59228 25200.00000 0 6856745.057 -24212453.570 4262005.103 10 0 59228 26100.00000 0 6583020.713 -23530887.173 7375240.422 10 0 59228 27000.00000 0 6325054.228 -22458703.864 10345455.013 10 0 59228 27900.00000 0 6136658.764 -21017730.993 13115054.955 10 0 59228 28800.00000 0 6066913.549 -19242120.831 15630333.489 10 0 59228 29700.00000 0 6157886.562 -17177063.515 17842507.685 10 0 59228 30600.00000 0 6442661.263 -14877055.160 19708660.068 10 0 59228 31500.00000 0 6943750.687 -12403792.761 21192567.403 10 0 59228 32400.00000 0 7671966.087 -9823782.659 22265401.175 10 0 59228 33300.00000 0 8625788.368 -7205761.124 22906286.617 10 0 59228 34200.00000 0 9791269.645 -4618033.372 23102709.749 10 0 59228 35100.00000 0 11142470.298 -2125840.509 22850764.637 10 0 59228 36000.00000 0 12642414.634 211137.184 22155235.925 10 0 59228 36900.00000 0 14244526.628 2341037.688 21029514.555 10 0 59228 37800.00000 0 15894487.158 4221742.326 19495347.632 10 0 59228 38700.00000 0 17532436.338 5822388.986 17582426.348 10 0 59228 39600.00000 0 19095429.753 7124410.810 15327818.963 10 0 59228 40500.00000 0 20520046.406 8122057.409 12775258.870 10 0 59228 41400.00000 0 21745039.269 8822377.147 9974300.616 10 0 59228 42300.00000 0 22713916.968 9244661.559 6979359.733 10 0 59228 43200.00000 0 23377347.573 9419375.762 3848654.692 10 0 59228 44100.00000 0 23695282.482 9386620.503 643071.558 10 0 59228 45000.00000 0 23638709.876 9194191.494 -2575026.049 10 0 59228 45900.00000 0 23190962.764 8895319.025 -5743017.848 10 0 59228 46800.00000 0 22348525.360 8546184.595 -8799253.960 10 0 59228 47700.00000 0 21121302.921 8203320.888 -11684263.116 10 0 59228 48600.00000 0 19532342.971 7921006.448 -14341917.491 10 0 59228 49500.00000 0 17617019.191 7748766.556 -16720530.658 10 0 59228 50400.00000 0 15421712.127 7729087.070 -18773866.577 10 0 59228 51300.00000 0 13002042.081 7895438.786 -20462039.730 10 0 59228 52200.00000 0 10420728.299 8270696.370 -21752288.918 10 0 59228 53100.00000 0 7745164.215 8866018.957 -22619609.936 10 0 59228 54000.00000 0 5044809.970 9680239.772 -23047235.458 10 0 59228 54900.00000 0 2388510.782 10699790.531 -23026953.478 10 0 59228 55800.00000 0 -158147.493 11899163.730 -22559258.909 10 0 59228 56700.00000 0 -2535336.309 13241893.357 -21653336.112 10 0 59228 57600.00000 0 -4691232.991 14682012.853 -20326873.321 10 0 59228 58500.00000 0 -6583927.581 16165929.166 -18605712.991 10 0 59228 59400.00000 0 -8182910.167 17634634.417 -16523345.194 10 0 59228 60300.00000 0 -9470078.428 19026162.642 -14120253.898 10 0 59228 61200.00000 0 -10440225.093 20278188.740 -11443128.928 10 0 59228 62100.00000 0 -11100986.759 21330660.880 -8543958.738 10 0 59228 63000.00000 0 -11472257.957 22128356.113 -5479021.470 10 0 59228 63900.00000 0 -11585096.565 22623252.106 -2307793.856 10 0 59228 64800.00000 0 -11480167.914 22776615.531 908201.020 10 0 59228 65700.00000 0 -11205794.207 22560719.494 4106584.780 10 0 59228 66600.00000 0 -10815692.150 21960117.821 7225330.512 10 0 59228 67500.00000 0 -10366494.823 20972422.575 10203961.929 10 0 59228 68400.00000 0 -9915162.571 19608551.894 12984721.831 10 0 59228 69300.00000 0 -9516392.264 17892437.332 15513687.382 10 0 59228 70200.00000 0 -9220134.165 15860202.363 17741810.942 10 0 59228 71100.00000 0 -9069321.011 13558845.572 19625866.797 10 0 59228 72000.00000 0 -9097904.909 11044482.646 21129285.849 10 0 59228 72900.00000 0 -9329284.765 8380219.343 22222862.673 10 0 59228 73800.00000 0 -9775190.652 5633742.760 22885321.724 10 0 59228 74700.00000 0 -10435072.500 2874729.964 23103731.972 10 0 59228 75600.00000 0 -11296019.565 172180.338 22873762.096 10 0 59228 76500.00000 0 -12333215.092 -2408218.702 22199771.111 10 0 59228 77400.00000 0 -13510908.292 -4806584.198 21094732.224 10 0 59228 78300.00000 0 -14783864.166 -6971085.694 19579990.744 10 0 59228 79200.00000 0 -16099231.621 -8859856.046 17684859.778 10 0 59228 80100.00000 0 -17398752.565 -10442485.924 15446060.629 10 0 59228 81000.00000 0 -18621220.022 -11701040.051 12907017.701 10 0 59228 81900.00000 0 -19705082.414 -12630553.061 10117020.707 10 0 59228 82800.00000 0 -20591084.471 -13238984.438 7130269.848 10 0 59228 83700.00000 0 -21224833.160 -13546634.804 4004822.173 10 0 59228 84600.00000 0 -21559179.753 -13585048.605 801459.571 10 0 59228 85500.00000 0 -21556316.499 -13395450.039 -2417499.072 10 0 59229 0.00000 0 -21189498.300 -13026779.093 -5589417.718 10 0 59229 900.00000 0 -20444315.047 -12533411.796 -8652570.758 10 0 59229 1800.00000 0 -19319461.028 -11972661.866 -11547352.329 10 0 59229 2700.00000 0 -17826965.886 -11402171.353 -14217444.061 10 0 59229 3600.00000 0 -15991878.760 -10877301.009 -16610916.804 10 0 59229 4500.00000 0 -13851416.962 -10448632.391 -18681244.460 10 0 59229 5400.00000 0 -11453615.264 -10159687.794 -20388209.890 10 0 59229 6300.00000 0 -8855532.030 -10044964.974 -21698685.304 10 0 59229 7200.00000 0 -6121087.282 -10128369.806 -22587272.178 10 0 59229 8100.00000 0 -3318622.892 -10422112.996 -23036788.901 10 0 59229 9000.00000 0 -518286.376 -10926117.096 -23038597.356 10 0 59229 9900.00000 0 2210653.028 -11627958.480 -22592762.838 10 0 59229 10800.00000 0 4802445.011 -12503346.321 -21708044.962 10 0 59229 11700.00000 0 7197346.621 -13517118.103 -20401720.321 10 0 59229 12600.00000 0 9343856.055 -14624709.553 -18699240.810 10 0 59229 13500.00000 0 11200600.252 -15774037.053 -16633734.525 10 0 59229 14400.00000 0 12737799.259 -16907713.386 -14245359.017 10 0 59229 15300.00000 0 13938247.878 -17965503.730 -11580519.498 10 0 59229 16200.00000 0 14797775.356 -18886918.745 -8690967.061 10 0 59229 17100.00000 0 15325165.596 -19613835.872 -5632794.277 10 0 59229 18000.00000 0 15541542.720 -20093038.691 -2465347.620 10 0 59229 18900.00000 0 15479249.237 -20278567.604 749922.291 10 0 59229 19800.00000 0 15180265.149 -20133782.958 3950650.406 10 0 59229 20700.00000 0 14694235.417 -19633053.750 7074763.787 10 0 59229 21600.00000 0 14076189.552 -18763000.700 10061681.709 10 0 59229 22500.00000 0 13384049.807 -17523241.093 12853486.193 10 0 59229 23400.00000 0 12676033.116 -15926603.620 15396040.407 10 0 59229 24300.00000 0 12008056.251 -13998803.486 17640033.675 10 0 59229 25200.00000 0 11431253.287 -11777590.445 19541933.273 10 0 59229 26100.00000 0 10989709.663 -9311404.328 21064825.015 10 0 59229 27000.00000 0 10718507.966 -6657592.880 22179126.926 10 0 59229 27900.00000 0 10642167.497 -3880264.756 22863162.627 10 0 59229 28800.00000 0 10773543.267 -1047865.646 23103583.621 10 0 59229 29700.00000 0 11113230.989 1769423.185 22895632.447 10 0 59229 30600.00000 0 11649503.586 4502357.265 22243241.450 10 0 59229 31500.00000 0 12358782.688 7085262.322 21158964.824 10 0 59229 32400.00000 0 13206626.251 9458520.418 19663744.593 10 0 59229 33300.00000 0 14149191.824 11570806.265 17786514.129 10 0 59229 34200.00000 0 15135114.951 13380981.149 15563645.967 10 0 59229 35100.00000 0 16107724.459 14859565.956 13038253.574 10 0 59229 36000.00000 0 17007501.914 15989732.011 10259359.730 10 0 59229 36900.00000 0 17774681.737 16767768.432 7280947.064 10 0 59229 37800.00000 0 18351882.085 17203006.574 4160908.815 10 0 59229 38700.00000 0 18686654.808 17317205.091 959920.207 10 0 59229 39600.00000 0 18733845.812 17143421.873 -2259747.168 10 0 59229 40500.00000 0 18457664.928 16724421.107 -5435444.215 10 0 59229 41400.00000 0 17833376.462 16110683.543 -8505371.839 10 0 59229 42300.00000 0 16848537.747 15358105.019 -11409792.045 10 0 59229 43200.00000 0 15503732.170 14525481.620 -14092198.093 10 0 59229 44100.00000 0 13812764.689 13671888.879 -16500420.035 10 0 59229 45000.00000 0 11802310.853 12854066.756 -18587643.397 10 0 59229 45900.00000 0 9511033.413 12123921.650 -20313320.881 10 0 59229 46800.00000 0 6988203.159 11526251.381 -21643959.343 10 0 59229 47700.00000 0 4291881.493 11096789.335 -22553766.991 10 0 59229 48600.00000 0 1486740.424 10860650.039 -23025148.770 10 0 59229 49500.00000 0 -1358389.377 10831241.271 -23049041.061 10 0 59229 50400.00000 0 -4173140.615 11009687.897 -22625079.872 10 0 59229 51300.00000 0 -6888292.949 11384790.955 -21761600.062 10 0 59229 52200.00000 0 -9438407.292 11933523.006 -20475466.202 10 0 59229 53100.00000 0 -11764302.148 12622038.229 -18791738.826 10 0 59229 54000.00000 0 -13815270.214 13407154.255 -16743182.873 10 0 59229 54900.00000 0 -15550944.309 14238242.985 -14369627.934 10 0 59229 55800.00000 0 -16942736.267 15059450.572 -11717192.763 10 0 59229 56700.00000 0 -17974790.336 15812152.977 -8837389.012 10 0 59229 57600.00000 0 -18644412.760 16437543.661 -5786121.419 10 0 59229 58500.00000 0 -18961961.007 16879244.383 -2622603.812 10 0 59229 59400.00000 0 -18950198.664 17085829.127 591788.139 10 0 59229 60300.00000 0 -18643144.282 17013154.753 3794705.277 10 0 59229 61200.00000 0 -18084463.499 16626400.102 6924031.270 10 0 59229 62100.00000 0 -17325472.823 15901727.446 9919083.630 10 0 59229 63000.00000 0 -16422839.547 14827496.008 12721786.287 10 0 59229 63900.00000 0 -15436074.818 13404976.011 15277791.089 10 0 59229 64800.00000 0 -14424925.377 11648532.523 17537526.920 10 0 59229 65700.00000 0 -13446773.449 9585270.398 19457156.504 10 0 59229 66600.00000 0 -12554153.804 7254154.057 20999422.836 10 0 59229 67500.00000 0 -11792491.937 4704637.459 22134369.396 10 0 59229 68400.00000 0 -11198157.948 1994859.888 22839920.677 10 0 59229 69300.00000 0 -10796917.589 -810518.859 23102312.056 10 0 59229 70200.00000 0 -10602845.354 -3642755.478 22916360.887 10 0 59229 71100.00000 0 -10617745.303 -6431632.643 22285573.376 10 0 59229 72000.00000 0 -10831104.286 -9108133.851 21222084.785 10 0 59229 72900.00000 0 -11220580.012 -11607073.715 19746433.470 10 0 59229 73800.00000 0 -11753004.136 -13869575.297 17887172.227 10 0 59229 74700.00000 0 -12385858.857 -15845291.934 15680323.514 10 0 59229 75600.00000 0 -13069165.527 -17494281.421 13168688.123 10 0 59229 76500.00000 0 -13747706.140 -18788454.509 10401019.780 10 0 59229 77400.00000 0 -14363484.175 -19712537.108 7431081.080 10 0 59229 78300.00000 0 -14858320.730 -20264505.954 4316598.716 10 0 59229 79200.00000 0 -15176475.735 -20455479.481 1118138.270 10 0 59229 80100.00000 0 -15267182.502 -20309068.655 -2102079.114 10 0 59229 81000.00000 0 -15086987.305 -19860215.539 -5281394.516 10 0 59229 81900.00000 0 -14601793.651 -19153569.152 -8357938.874 10 0 59229 82800.00000 0 -13788523.442 -18241467.958 -11271845.453 10 0 59229 83700.00000 0 -12636323.457 -17181615.160 -13966422.549 10 0 59229 84600.00000 0 -11147264.988 -16034545.921 -16389262.714 10 0 59229 85500.00000 0 -9336506.106 -14860994.418 -18493266.173 10 0 59230 0.00000 0 -7231908.963 -13719272.563 -20237558.171 10 0 59230 900.00000 0 -4873127.091 -12662771.670 -21588282.560 10 0 59230 1800.00000 0 -2310201.578 -11737691.746 -22519256.010 10 0 59230 2700.00000 0 398277.078 -10981095.357 -23012471.200 10 0 59230 3600.00000 0 3187363.822 -10419365.666 -23058439.606 10 0 59230 4500.00000 0 5988220.096 -10067134.048 -22656367.985 10 0 59230 5400.00000 0 8730738.936 -9926720.778 -21814165.969 10 0 59230 6300.00000 0 11346225.610 -9988111.397 -20548285.170 10 0 59230 7200.00000 0 13770023.008 -10229468.697 -18883393.408 10 0 59230 8100.00000 0 15943973.543 -10618157.795 -16851890.708 10 0 59230 9000.00000 0 17818616.240 -11112240.377 -14493276.549 10 0 59230 9900.00000 0 19355028.593 -11662374.530 -11853380.689 10 0 59230 10800.00000 0 20526237.740 -12214039.700 -8983472.423 10 0 59230 11700.00000 0 21318143.320 -12709992.679 -5939265.401 10 0 59230 12600.00000 0 21729914.682 -13092850.860 -2779837.283 10 0 59230 13500.00000 0 21773847.087 -13307693.692 433514.918 10 0 59230 14400.00000 0 21474684.015 -13304572.470 3638461.678 10 0 59230 15300.00000 0 20868434.972 -13040822.486 6772846.933 10 0 59230 16200.00000 0 20000739.200 -12483079.838 9775889.890 10 0 59230 17100.00000 0 18924844.542 -11608917.563 12589359.515 10 0 59230 18000.00000 0 17699286.692 -10408031.752 15158699.074 10 0 59230 18900.00000 0 16385366.341 -8882927.069 17434079.289 10 0 59230 19800.00000 0 15044530.010 -7049071.928 19371360.151 10 0 59230 20700.00000 0 13735764.136 -4934515.709 20932943.173 10 0 59230 21600.00000 0 12513111.271 -2578982.580 22088498.166 10 0 59230 22500.00000 0 11423411.956 -32478.193 22815550.913 10 0 59230 23400.00000 0 10504366.434 2646534.314 23099920.662 10 0 59230 24300.00000 0 9782996.972 5393314.828 22935999.162 10 0 59230 25200.00000 0 9274574.914 8139294.284 22326865.677 10 0 59230 26100.00000 0 8982057.410 10814689.922 21284235.384 10 0 59230 27000.00000 0 8896057.466 13351180.374 19828241.502 10 0 59230 27900.00000 0 8995348.866 15684530.452 17987054.491 10 0 59230 28800.00000 0 9247885.078 17757056.970 15796344.736 10 0 59230 29700.00000 0 9612289.657 19519833.340 13298598.146 10 0 59230 30600.00000 0 10039755.612 20934541.048 10542296.982 10 0 59230 31500.00000 0 10476273.736 21974890.464 7580981.227 10 0 59230 32400.00000 0 10865095.581 22627551.362 4472208.315 10 0 59230 33300.00000 0 11149326.514 22892553.882 1276431.380 10 0 59230 34200.00000 0 11274538.318 22783142.993 -1944181.732 10 0 59230 35100.00000 0 11191289.671 22325092.670 -5126965.078 10 0 59230 36000.00000 0 10857446.532 21555509.004 -8209982.316 10 0 59230 36900.00000 0 10240202.804 20521173.232 -11133240.463 10 0 59230 37800.00000 0 9317714.406 19276495.328 -13839865.095 10 0 59230 38700.00000 0 8080276.328 17881165.307 -16277213.235 10 0 59230 39600.00000 0 6530991.845 16397602.143 -18397901.495 10 0 59230 40500.00000 0 4685904.667 14888308.589 -20160729.149 10 0 59230 41400.00000 0 2573587.600 13413243.784 -21531478.118 10 0 59230 42300.00000 0 234204.405 12027324.493 -22483574.537 10 0 59230 43200.00000 0 -2281916.433 10778159.875 -22998599.572 10 0 59230 44100.00000 0 -4916136.867 9704114.440 -23066640.269 10 0 59230 45000.00000 0 -7603716.334 8832779.722 -22686474.329 10 0 59230 45900.00000 0 -10276279.201 8179917.689 -21865586.002 10 0 59230 46800.00000 0 -12864440.424 7748918.933 -20620013.406 10 0 59230 47700.00000 0 -15300480.743 7530797.026 -18974030.727 10 0 59230 48600.00000 0 -17520960.845 7504717.940 -16959671.786 10 0 59230 49500.00000 0 -19469166.599 7639040.998 -14616104.334 10 0 59230 50400.00000 0 -21097284.331 7892826.531 -11988867.260 10 0 59230 51300.00000 0 -22368216.547 8217745.876 -9128985.445 10 0 59230 52200.00000 0 -23256963.335 8560312.568 -6091979.259 10 0 59230 53100.00000 0 -23751512.719 8864340.134 -2936787.910 10 0 59230 54000.00000 0 -23853203.765 9073522.484 275372.598 10 0 59230 54900.00000 0 -23576548.172 9134027.702 3482194.805 10 0 59230 55800.00000 0 -22948518.599 8996995.565 6621485.418 10 0 59230 56700.00000 0 -22007334.315 8620833.193 9632367.901 10 0 59230 57600.00000 0 -20800795.564 7973211.684 12456458.876 10 0 59230 58500.00000 0 -19384236.839 7032679.193 15038995.641 10 0 59230 59400.00000 0 -17818184.966 5789821.971 17329893.312 10 0 59230 60300.00000 0 -16165820.001 4247923.695 19284711.560 10 0 59230 61200.00000 0 -14490345.000 2423094.396 20865512.620 10 0 59230 62100.00000 0 -12852374.255 343862.254 22041594.552 10 0 59230 63000.00000 0 -11307448.639 -1949756.267 22790086.012 10 0 59230 63900.00000 0 -9903781.349 -4407670.747 23096391.329 10 0 59230 64800.00000 0 -8680327.657 -6971558.474 22954477.463 10 0 59230 65700.00000 0 -7665258.813 -9577058.570 22366997.156 10 0 59230 66600.00000 0 -6874903.550 -12156228.837 21345245.522 10 0 59230 67500.00000 0 -6313201.241 -14640164.613 19908950.269 10 0 59230 68400.00000 0 -5971689.500 -16961671.825 18085898.765 10 0 59230 69300.00000 0 -5830026.781 -19057883.655 15911408.192 10 0 59230 70200.00000 0 -5857028.095 -20872712.258 13427648.087 10 0 59230 71100.00000 0 -6012170.275 -22359033.274 10682827.444 10 0 59230 72000.00000 0 -6247503.321 -23480511.624 7730261.555 10 0 59230 72900.00000 0 -6509886.871 -24212991.778 4627336.277 10 0 59230 73800.00000 0 -6743456.782 -24545393.776 1434389.771 10 0 59230 74700.00000 0 -6892216.688 -24480076.933 -1786466.096 10 0 59230 75600.00000 0 -6902643.795 -24032655.706 -4972561.203 10 0 59230 76500.00000 0 -6726197.284 -23231275.427 -8061894.893 10 0 59230 77400.00000 0 -6321621.742 -22115378.651 -10994351.008 10 0 59230 78300.00000 0 -5656946.680 -20734014.544 -13712875.527 10 0 59230 79200.00000 0 -4711096.191 -19143763.193 -16164593.041 10 0 59230 80100.00000 0 -3475039.495 -17406362.985 -18301839.535 10 0 59230 81000.00000 0 -1952432.763 -15586141.623 -20083091.044 10 0 59230 81900.00000 0 -159724.222 -13747359.333 -21473770.060 10 0 59230 82800.00000 0 1874282.552 -11951576.196 -22446914.207 10 0 59230 83700.00000 0 4109389.468 -10255154.071 -22983694.717 10 0 59230 84600.00000 0 6495449.197 -8706997.403 -23073775.330 10 0 59230 85500.00000 0 8974234.865 -7346626.860 -22715505.339 99